| time (UTC) | temp C | wind direction | speed KPH | gust KPH | rain 1hr cm | rain 24hr cm | rain mn cm | humidity % | barometer mb |
| 20260508023517 | 15 | 0 | 1.6 | 8.0 | 0.00 | 0.00 | 0.00 | 61 | 1011.1 |
| 20260508022517 | 16 | 135 | 3.2 | 11.3 | 0.00 | 0.00 | 0.00 | 63 | 1011.2 |
| 20260508021517 | 16 | 0 | 6.4 | 22.5 | 0.00 | 0.00 | 0.00 | 64 | 1011.3 |
| 20260508020557 | 16 | 158 | 9.7 | 38.6 | 0.00 | 0.03 | 0.00 | 65 | 1011.4 |
| 20260508014517 | 16 | 0 | 11.3 | 25.7 | 0.00 | 0.03 | 0.00 | 64 | 1011.3 |
| 20260508013517 | 16 | 113 | 8.0 | 20.9 | 0.00 | 0.03 | 0.00 | 65 | 1011.4 |
| 20260508011557 | 16 | 0 | 8.0 | 20.9 | 0.00 | 0.05 | 0.00 | 64 | 1011.2 |
| 20260508010517 | 16 | 113 | 4.8 | 19.3 | 0.00 | 0.05 | 0.00 | 62 | 1011.5 |
| 20260508004517 | 16 | 0 | 9.7 | 38.6 | 0.00 | 0.05 | 0.00 | 62 | 1011.8 |
| 20260508003517 | 15 | 0 | 3.2 | 20.9 | 0.00 | 0.05 | 0.00 | 64 | 1011.8 |
| 20260508002517 | 15 | 45 | 4.8 | 19.3 | 0.00 | 0.05 | 0.00 | 68 | 1012.1 |
| 20260508001517 | 14 | 0 | 3.2 | 19.3 | 0.00 | 0.05 | 0.00 | 70 | 1012.0 |
| 20260508000537 | 13 | 0 | 3.2 | 17.7 | 0.00 | 0.05 | 0.00 | 74 | 1011.9 |
| 20260507235517 | 13 | 0 | 3.2 | 17.7 | 0.00 | 0.05 | 0.00 | 73 | 1012.2 |
| 20260507234517 | 13 | 0.0 | 0.0 | 0.00 | 0.05 | 0.00 | 72 | 1012.2 | |
| 20260507233517 | 13 | 0 | 1.6 | 22.5 | 0.00 | 0.05 | 0.00 | 73 | 1012.5 |
| 20260507231517 | 12 | 0.0 | 0.0 | 0.00 | 0.05 | 0.00 | 75 | 1012.9 | |
| 20260507230517 | 13 | 0.0 | 0.0 | 0.00 | 0.05 | 0.00 | 75 | 1013.0 | |
| 20260507224517 | 13 | 0.0 | 0.0 | 0.00 | 0.05 | 0.00 | 74 | 1013.0 | |
| 20260507223517 | 13 | 113 | 1.6 | 14.5 | 0.00 | 0.05 | 0.00 | 75 | 1013.1 |
| 20260507222517 | 13 | 0.0 | 0.0 | 0.00 | 0.05 | 0.00 | 75 | 1012.9 | |
| 20260507221517 | 13 | 0.0 | 0.0 | 0.00 | 0.05 | 0.00 | 75 | 1012.9 | |
| 20260507220517 | 13 | 0.0 | 0.0 | 0.00 | 0.05 | 0.00 | 74 | 1013.1 | |
| 20260507215518 | 13 | 0.0 | 0.0 | 0.00 | 0.05 | 0.05 | 73 | 1013.0 | |
| 20260507214518 | 13 | 0.0 | 0.0 | 0.00 | 0.05 | 0.05 | 72 | 1013.0 | |
| 20260507213518 | 13 | 0.0 | 0.0 | 0.00 | 0.05 | 0.05 | 71 | 1013.1 | |
| 20260507211518 | 14 | 0.0 | 0.0 | 0.00 | 0.05 | 0.05 | 69 | 1013.0 | |
| 20260507210538 | 15 | 0.0 | 0.0 | 0.00 | 0.05 | 0.05 | 67 | 1013.1 | |
| 20260507204518 | 15 | 0.0 | 1.6 | 0.00 | 0.05 | 0.05 | 64 | 1013.2 | |
| 20260507203517 | 16 | 0.0 | 9.7 | 0.00 | 0.05 | 0.05 | 61 | 1013.3 | |
| 20260507202518 | 16 | 113 | 1.6 | 17.7 | 0.00 | 0.05 | 0.05 | 61 | 1013.1 |
| 20260507201517 | 16 | 113 | 1.6 | 14.5 | 0.00 | 0.05 | 0.05 | 62 | 1013.1 |
| 20260507200518 | 16 | 0 | 1.6 | 8.0 | 0.00 | 0.05 | 0.05 | 63 | 1013.5 |
| 20260507195519 | 16 | 0 | 1.6 | 14.5 | 0.00 | 0.05 | 0.05 | 63 | 1013.3 |
| 20260507194518 | 16 | 113 | 6.4 | 17.7 | 0.00 | 0.08 | 0.05 | 65 | 1013.3 |
| 20260507193537 | 15 | 113 | 1.6 | 16.1 | 0.00 | 0.08 | 0.05 | 67 | 1013.2 |
| 20260507191517 | 15 | 0.0 | 0.0 | 0.00 | 0.08 | 0.05 | 66 | 1013.1 | |
| 20260507190519 | 15 | 0.0 | 0.0 | 0.00 | 0.10 | 0.05 | 64 | 1013.1 | |
| 20260507184518 | 16 | 338 | 1.6 | 20.9 | 0.00 | 0.10 | 0.05 | 61 | 1013.1 |
| 20260507183517 | 16 | 0.0 | 0.0 | 0.00 | 0.10 | 0.05 | 61 | 1012.9 | |
| 20260507182517 | 16 | 0.0 | 0.0 | 0.00 | 0.10 | 0.05 | 59 | 1012.9 | |
| 20260507181517 | 17 | 0.0 | 0.0 | 0.00 | 0.10 | 0.05 | 57 | 1013.1 | |
| 20260507180517 | 17 | 0.0 | 0.0 | 0.00 | 0.10 | 0.05 | 55 | 1012.8 | |
| 20260507175517 | 17 | 0.0 | 0.0 | 0.00 | 0.10 | 0.05 | 52 | 1012.6 | |
| 20260507174517 | 18 | 0.0 | 0.0 | 0.00 | 0.10 | 0.05 | 50 | 1012.6 | |
| 20260507173517 | 18 | 0.0 | 0.0 | 0.00 | 0.10 | 0.05 | 48 | 1012.4 | |
| 20260507171517 | 20 | 0.0 | 0.0 | 0.00 | 0.10 | 0.05 | 46 | 1012.4 | |
| 20260507170517 | 20 | 0.0 | 0.0 | 0.00 | 0.10 | 0.05 | 48 | 1012.5 | |
| 20260507165517 | 20 | 0.0 | 0.0 | 0.00 | 0.10 | 0.05 | 46 | 1012.4 | |
| 20260507164517 | 20 | 0.0 | 0.0 | 0.00 | 0.10 | 0.05 | 44 | 1012.4 | |
| 20260507163517 | 20 | 0.0 | 0.0 | 0.00 | 0.10 | 0.05 | 46 | 1012.4 | |
| 20260507162517 | 19 | 0.0 | 0.0 | 0.00 | 0.10 | 0.05 | 44 | 1012.5 | |
| 20260507161517 | 20 | 0.0 | 0.0 | 0.00 | 0.10 | 0.05 | 48 | 1012.5 | |
| 20260507160537 | 20 | 0.0 | 0.0 | 0.00 | 0.10 | 0.05 | 46 | 1012.5 | |
| 20260507155517 | 20 | 0.0 | 0.0 | 0.00 | 0.10 | 0.05 | 48 | 1012.6 | |
| 20260507154517 | 21 | 0.0 | 0.0 | 0.00 | 0.10 | 0.05 | 46 | 1012.6 | |
| 20260507153517 | 21 | 0.0 | 0.0 | 0.00 | 0.10 | 0.05 | 42 | 1012.5 | |
| 20260507151517 | 21 | 0.0 | 8.0 | 0.00 | 0.10 | 0.05 | 43 | 1012.6 | |
| 20260507150517 | 21 | 0.0 | 0.0 | 0.00 | 0.10 | 0.05 | 47 | 1012.8 | |
| 20260507144517 | 20 | 0.0 | 0.0 | 0.00 | 0.10 | 0.05 | 48 | 1013.0 | |
| 20260507143517 | 21 | 0.0 | 0.0 | 0.00 | 0.10 | 0.05 | 44 | 1013.1 | |
| 20260507142516 | 21 | 0.0 | 0.0 | 0.00 | 0.10 | 0.05 | 48 | 1013.0 | |
| 20260507141537 | 21 | 0.0 | 0.0 | 0.00 | 0.10 | 0.05 | 45 | 1013.1 | |
| 20260507140517 | 21 | 0.0 | 1.6 | 0.00 | 0.10 | 0.05 | 45 | 1013.2 | |
| 20260507135516 | 22 | 0.0 | 3.2 | 0.00 | 0.10 | 0.05 | 42 | 1013.2 | |
| 20260507134537 | 21 | 0.0 | 3.2 | 0.00 | 0.10 | 0.05 | 46 | 1013.3 | |
| 20260507133516 | 21 | 0.0 | 8.0 | 0.00 | 0.10 | 0.05 | 45 | 1013.6 | |
| 20260507132517 | 21 | 0.0 | 0.0 | 0.00 | 0.10 | 0.05 | 46 | 1013.7 | |
| 20260507131537 | 21 | 0.0 | 3.2 | 0.00 | 0.10 | 0.05 | 44 | 1013.7 | |
| 20260507130516 | 20 | 0.0 | 0.0 | 0.00 | 0.10 | 0.05 | 47 | 1013.7 | |
| 20260507124517 | 20 | 0.0 | 0.0 | 0.00 | 0.10 | 0.05 | 46 | 1013.6 | |
| 20260507123516 | 20 | 0.0 | 0.0 | 0.00 | 0.10 | 0.05 | 44 | 1013.6 | |
| 20260507122516 | 20 | 0.0 | 3.2 | 0.00 | 0.10 | 0.05 | 43 | 1013.6 | |
| 20260507121536 | 20 | 0.0 | 6.4 | 0.00 | 0.10 | 0.05 | 44 | 1013.6 | |
| 20260507120516 | 20 | 0.0 | 1.6 | 0.00 | 0.10 | 0.05 | 50 | 1013.6 | |
| 20260507115517 | 21 | 203 | 1.6 | 11.3 | 0.00 | 0.10 | 0.05 | 46 | 1013.6 |
| 20260507114536 | 21 | 113 | 1.6 | 12.9 | 0.00 | 0.10 | 0.05 | 47 | 1013.6 |
| 20260507113516 | 21 | 113 | 3.2 | 19.3 | 0.00 | 0.10 | 0.05 | 48 | 1013.8 |
| 20260507111516 | 20 | 0.0 | 0.0 | 0.00 | 0.10 | 0.05 | 55 | 1013.9 | |
| 20260507110518 | 20 | 180 | 1.6 | 9.7 | 0.00 | 0.10 | 0.05 | 53 | 1014.1 |
| 20260507105518 | 19 | 0.0 | 6.4 | 0.00 | 0.10 | 0.05 | 56 | 1014.2 | |
| 20260507104518 | 19 | 0.0 | 1.6 | 0.00 | 0.10 | 0.05 | 57 | 1014.2 | |
| 20260507103518 | 18 | 113 | 1.6 | 11.3 | 0.00 | 0.10 | 0.05 | 57 | 1014.2 |
| 20260507101538 | 18 | 0.0 | 6.4 | 0.00 | 0.10 | 0.05 | 58 | 1014.2 | |
| 20260507100518 | 18 | 0.0 | 3.2 | 0.00 | 0.10 | 0.05 | 59 | 1014.4 | |
| 20260507095518 | 18 | 0.0 | 0.0 | 0.00 | 0.10 | 0.05 | 59 | 1014.4 | |
| 20260507094518 | 17 | 0.0 | 8.0 | 0.00 | 0.10 | 0.05 | 61 | 1014.4 | |
| 20260507093518 | 17 | 0.0 | 0.0 | 0.00 | 0.10 | 0.05 | 64 | 1014.4 | |
| 20260507092518 | 18 | 0.0 | 3.2 | 0.00 | 0.10 | 0.05 | 61 | 1014.4 | |
| 20260507091518 | 18 | 0.0 | 8.0 | 0.00 | 0.10 | 0.05 | 62 | 1014.4 | |
| 20260507090518 | 17 | 135 | 1.6 | 20.9 | 0.00 | 0.10 | 0.05 | 65 | 1014.5 |
| 20260507085618 | 17 | 113 | 1.6 | 14.5 | 0.00 | 0.10 | 0.05 | 66 | 1014.3 |
| 20260507084518 | 16 | 0.0 | 0.0 | 0.00 | 0.10 | 0.05 | 70 | 1014.3 | |
| 20260507083518 | 16 | 0.0 | 0.0 | 0.00 | 0.10 | 0.05 | 75 | 1014.6 | |
| 20260507081519 | 15 | 0.0 | 0.0 | 0.00 | 0.10 | 0.05 | 77 | 1014.5 | |
| 20260507080518 | 15 | 0.0 | 6.4 | 0.00 | 0.10 | 0.05 | 77 | 1014.2 | |
| 20260507075518 | 15 | 0.0 | 0.0 | 0.00 | 0.10 | 0.05 | 77 | 1014.2 | |
| 20260507074518 | 15 | 0.0 | 1.6 | 0.00 | 0.10 | 0.05 | 76 | 1014.2 | |
| 20260507073518 | 15 | 0.0 | 0.0 | 0.00 | 0.10 | 0.05 | 77 | 1014.1 | |
| 20260507071518 | 15 | 0.0 | 0.0 | 0.00 | 0.10 | 0.05 | 77 | 1014.3 | |
| 20260507070537 | 15 | 0.0 | 0.0 | 0.00 | 0.10 | 0.05 | 78 | 1013.9 | |
| 20260507065517 | 14 | 0.0 | 8.0 | 0.00 | 0.10 | 0.05 | 78 | 1013.8 | |
| 20260507064517 | 15 | 113 | 1.6 | 8.0 | 0.00 | 0.10 | 0.05 | 79 | 1013.8 |
| 20260507063518 | 14 | 0.0 | 4.8 | 0.00 | 0.10 | 0.05 | 83 | 1013.8 | |
| 20260507061518 | 13 | 0.0 | 4.8 | 0.00 | 0.10 | 0.05 | 85 | 1013.8 | |
| 20260507060517 | 13 | 0.0 | 0.0 | 0.00 | 0.10 | 0.05 | 86 | 1013.7 | |
| 20260507055517 | 13 | 113 | 1.6 | 9.7 | 0.00 | 0.10 | 0.05 | 87 | 1013.7 |
| 20260507054538 | 12 | 0.0 | 6.4 | 0.00 | 0.10 | 0.05 | 87 | 1013.6 | |
| 20260507053517 | 13 | 0.0 | 8.0 | 0.00 | 0.10 | 0.05 | 87 | 1013.7 | |
| 20260507052538 | 12 | 0.0 | 6.4 | 0.00 | 0.10 | 0.05 | 88 | 1013.7 | |
| 20260507051537 | 12 | 0.0 | 0.0 | 0.00 | 0.10 | 0.05 | 88 | 1013.8 | |
| 20260507050517 | 12 | 0.0 | 0.0 | 0.00 | 0.10 | 0.05 | 89 | 1013.6 | |
| 20260507044517 | 12 | 0.0 | 16.1 | 0.00 | 0.10 | 0.05 | 90 | 1013.5 | |
| 20260507043537 | 12 | 0.0 | 6.4 | 0.00 | 0.10 | 0.05 | 90 | 1013.4 | |
| 20260507042537 | 12 | 113 | 3.2 | 17.7 | 0.00 | 0.10 | 0.05 | 90 | 1013.3 |
| 20260507041517 | 12 | 0.0 | 0.0 | 0.00 | 0.10 | 0.05 | 90 | 1013.3 | |
| 20260507040537 | 12 | 113 | 4.8 | 25.7 | 0.00 | 0.10 | 0.05 | 90 | 1013.0 |
| 20260507034517 | 12 | 158 | 1.6 | 19.3 | 0.00 | 0.10 | 0.05 | 90 | 1013.0 |
| 20260507033537 | 12 | 0.0 | 11.3 | 0.00 | 0.10 | 0.05 | 90 | 1012.9 | |
| 20260507032518 | 12 | 0.0 | 0.0 | 0.00 | 0.10 | 0.05 | 90 | 1012.9 | |
| 20260507031517 | 12 | 0.0 | 9.7 | 0.00 | 0.10 | 0.05 | 90 | 1012.9 | |
| 20260507030517 | 12 | 0.0 | 0.0 | 0.03 | 0.10 | 0.05 | 91 | 1012.9 | |
| 20260507025537 | 12 | 113 | 3.2 | 19.3 | 0.03 | 0.10 | 0.05 | 91 | 1013.0 |
| 20260507024517 | 12 | 90 | 1.6 | 11.3 | 0.03 | 0.10 | 0.05 | 91 | 1013.0 |